Regional Weather Roundup
Issued by NWS

Home | Current Version | Previous Version | Text Only | Print | Product List | Glossary Off
Versions: 1 2 3 4 5 6 7 8 9 10 11 12 13 14 15 16 17 18 19 20 21 22 23 24 25 26 27 28 29 30 31 32 33 34 35 36 37 38 39 40 41 42 43 44 45 46 47 48 49 50

000
ASUS43 KLSX 090307
RWRMO

WEATHER SUMMARY FOR MISSOURI
NATIONAL WEATHER SERVICE SPRINGFIELD MO
900 PM CST THU DEC 08 2016

NOTE: "FAIR" INDICATES FEW OR NO CLOUDS BELOW 12,000 FEET WITH NO
       SIGNIFICANT WEATHER AND/OR OBSTRUCTIONS TO VISIBILITY.
       CURRENT SKY AND/OR WEATHER CONDITIONS ARE NOT AVAILABLE FOR
       CHILLICOTHE AND FARMINGTON.

MOZ001>031-035>038-043-044-053-054-090400-
...NORTHERN AND WESTERN MISSOURI...

CITY           SKY/WX    TMP DP  RH WIND       PRES   REMARKS
KANSAS CTY INT CLEAR     18   8  65 NW5       30.63S WCI  11
KANSAS C DTWN  CLEAR     22  10  60 W3        30.66S
LEE`S SUMMIT   CLEAR     20  10  65 NW6       30.64S WCI  12
ST JOSEPH      CLEAR     16   9  74 W5        30.65S WCI   9
CHILLICOTHE      N/A     19  10  68 NW6       30.64R WCI  11
KIRKSVILLE     CLEAR     17  10  74 NW7       30.58S WCI   8

$$
MOZ066>068-077>081-088>096-101>105-090400-
...SOUTHWEST MISSOURI...

CITY           SKY/WX    TMP DP  RH WIND       PRES   REMARKS
SPRINGFIELD    CLEAR     16  10  77 NW6       30.60S WCI   7
JOPLIN         CLEAR     20  14  77 CALM      30.65S
BRANSON        CLEAR     23  14  68 NW8       30.61R WCI  14

$$
MOZ032>034-039>042-045>050-055>058-069>072-090400-
...CENTRAL MISSOURI...

CITY           SKY/WX    TMP DP  RH WIND       PRES   REMARKS
COLUMBIA       CLEAR     20  11  68 W8        30.60S WCI  10
JEFFERSON CITY CLEAR     20  12  71 NW3       30.64R
ROLLA          CLEAR     20  12  71 NW9       30.57R WCI   9
SEDALIA        CLEAR     20  12  71 NW7       30.64R WCI  11
WARRENSBURG    CLEAR     19  12  73 W3        30.65S
OSAGE BEACH    CLEAR     21  13  71 NW6       30.63R WCI  13

$$
MOZ051-052-059>065-090400-
...EAST CENTRAL MISSOURI...

CITY           SKY/WX    TMP DP  RH WIND       PRES   REMARKS
ST LOUIS INTL  MOCLDY    25  11  55 NW12      30.58S WCI  14
SPIRIT OF STL  CLEAR     23  13  65 W8        30.59F WCI  14
ST CHARLES     PTCLDY    25  14  63 NW14      30.58S WCI  13

$$
MOZ072>076-082>087-097>100-106>115-090400-
...SOUTH CENTRAL AND SOUTHEAST MISSOURI...

CITY           SKY/WX    TMP DP  RH WIND       PRES   REMARKS
CAPE GIRARDEAU CLEAR     26  14  60 N10       30.57S WCI  16
FARMINGTON     CLEAR     23  13  65 NW12      30.56S WCI  12
POPLAR BLUFF   CLEAR     28  15  58 N7        30.58R WCI  21
WEST PLAINS    CLEAR     23  13  65 NW9       30.57S WCI  13

$$


USA.gov is the U.S. government's official web portal to all federal, state and local government web resources and services.